Regional Weather Roundup
Issued by NWS

Home | Current Version | Previous Version | Graphics & Text | Print | Product List | Glossary On
Versions: 1 2 3 4 5 6 7 8 9 10 11 12 13 14 15 16 17 18 19 20 21 22 23 24 25 26 27 28 29 30 31 32 33 34 35 36 37 38 39 40 41 42 43 44 45 46 47 48 49 50
000
ASUS43 KMKX 052210
RWRWI

WISCONSIN REGIONAL WEATHER ROUNDUP
NATIONAL WEATHER SERVICE MILWAUKEE/SULLIVAN WI
400 PM CST THU MAR 05 2015

NOTE: "FAIR" INDICATES FEW OR NO CLOUDS BELOW 12,000 FEET WITH NO
SIGNIFICANT WEATHER AND/OR OBSTRUCTIONS TO VISIBILITY.

WIZ001-002-006>008-014>016-023>028-052300-
NORTHWEST WISCONSIN

CITY           SKY/WX    TMP DP  RH WIND       PRES   REMARKS
SUPERIOR ARPT  SUNNY     16  -5  38 SW13      30.34F WCI   2
ASHLAND        SUNNY     15  -9  33 SW10      30.34F WCI   2
HAYWARD        SUNNY     11 -10  38 SW8       30.34F WCI  -1
SIREN          SUNNY     13  -6  41 SW8       30.38F WCI   2
CUMBERLAND     SUNNY     10  -8  44 SW8       30.37F WCI  -1
RICE LAKE      SUNNY     10  -8  44 SW6       30.41F WCI   1
CHETEK         SUNNY     10  -8  44 SW8       30.40F WCI  -2
LADYSMITH      SUNNY     12 -11  36 SW7       30.39S WCI   1
EAU CLAIRE     SUNNY     10  -8  44 W9        30.43F WCI  -3
MENOMONIE      SUNNY     13  -6  42 S9        30.44S WCI   0
NEW RICHMOND   SUNNY     13  -4  45 SW10      30.41F WCI   0
OSCEOLA        SUNNY     15  -4  43 SW9       30.44F WCI   3
$$

WIZ003>005-009-010-017-018-052300-
NORTH CENTRAL WISCONSIN

CITY           SKY/WX    TMP DP  RH WIND       PRES   REMARKS
MANITOWISH WTR SUNNY     12 -12  33 W10       30.27S WCI  -1
ARBOR VITAE    SUNNY     14 -10  33 W5        30.27F WCI   6
WOODRUFF       SUNNY     14 -10  33 W5        30.27F WCI   6
RHINELANDER    SUNNY     12  -9  38 W14       30.29S WCI  -3
EAGLE RIVER    SUNNY     12 -13  32 W13       30.26F WCI  -3
LAND O LAKES   SUNNY     15 -12  29 W6        30.26S WCI   6
PHILLIPS       SUNNY     10 -10  41 SW9       30.31F WCI  -3
TOMAHAWK       SUNNY     13 -12  31 NW9       30.32S WCI   0
MEDFORD        SUNNY      7  -8  51 SW8       30.35S WCI  -6
MERRILL        SUNNY     10  -7  45 SW12      30.35S WCI  -4
$$

WIZ029-030-035-036-043>047-052300-
CENTRAL WISCONSIN

CITY           SKY/WX    TMP DP  RH WIND       PRES   REMARKS
WAUSAU         SUNNY      9  -7  48 W13       30.37S WCI  -7
MOSINEE        SUNNY      9  -6  52 W12       30.39S WCI  -6
MARSHFIELD     SUNNY     11  -7  44 W8        30.38F WCI  -1
STEVENS POINT  SUNNY     10  -8  44 W7        30.40S WCI  -1
WAUPACA        SUNNY     18  -6  34 W6        30.42F WCI  10
WAUTOMA        SUNNY     15  -6  39 NW10      30.43S WCI   2
WISC RAPIDS    SUNNY     14  -7  38 W9        30.42S WCI   2
CAMP DOUGLAS   NOT AVBL
$$

WIZ011>013-019>022-031-037>040-048>050-052300-
NORTHEAST WISCONSIN

CITY           SKY/WX    TMP DP  RH WIND       PRES   REMARKS
ANTIGO         SUNNY      8  -6  52 W10       30.32S WCI  -6
SHAWANO        SUNNY     17  -8  33 W7        30.40S WCI   7
OCONTO         SUNNY     15  -5  40 SW12      30.40S WCI   2
STURGEON BAY   SUNNY     12  -6  44 W10       30.42R WCI  -1
GREEN BAY      SUNNY     14  -5  42 SW10      30.42S WCI   1
MANITOWOC      SUNNY     15  -2  46 W13       30.44R WCI   1
APPLETON       SUNNY     14  -8  37 W8        30.41S WCI   3
CLINTONVILLE   SUNNY     14  -8  37 W9        30.41S WCI   2
OSHKOSH        SUNNY     15  -4  42 W8G17     30.42S WCI   4
$$

WIZ032>034-041-042-053>061-052300-
SOUTHWEST WISCONSIN

CITY           SKY/WX    TMP DP  RH WIND       PRES   REMARKS
LA CROSSE      SUNNY     15  -3  44 NW12      30.48S WCI   2
SPARTA         SUNNY     15  -5  42 W5        30.47S WCI   7
VIROQUA        SUNNY     12  -4  48 SW12      30.43S WCI  -2
BOSCOBEL       SUNNY     15  -5  40 W7        30.50S WCI   5
PRAIRIE DU CHI SUNNY     12  -5  47 W7        30.51F WCI   1
PLATTEVILLE    SUNNY     12  -4  50 W8        30.47S WCI   0
$$

WIZ056-057-062-063-064-067-068-052300-
SOUTH CENTRAL WISCONSIN

CITY           SKY/WX    TMP DP  RH WIND       PRES   REMARKS
REEDSBURG      SUNNY     15  -3  45 W9        30.44S WCI   3
BARABOO/DELLS  SUNNY     15  -6  40 W10       30.43S WCI   2
LONE ROCK      SUNNY     15  -5  40 W8        30.48R WCI   4
MINERAL POINT  SUNNY     14  -4  44 W9        30.44S WCI   2
MADISON        SUNNY     15  -5  40 VRB6      30.45S WCI   6
MIDDLETON      SUNNY     18  -6  34 NW6       30.45S WCI  10
WATERTOWN      SUNNY     15  -2  48 W6        30.45S WCI   6
MONROE         SUNNY     14   0  52 W9        30.45S WCI   2
JANESVILLE     SUNNY     14  -4  44 W9        30.47S WCI   2
$$

WIZ051-052-058>065-066-070>072-052300-
SOUTHEAST WISCONSIN

CITY           SKY/WX    TMP DP  RH WIND       PRES   REMARKS
MILWAUKEE      SUNNY     16  -6  37 W7        30.46S WCI   6
WAUKESHA       SUNNY     12  -6  44 W12       30.45F WCI  -2
MILWAUKEE/TIMM SUNNY     16  -8  35 W8        30.46S WCI   5
RACINE         SUNNY     15  -6  39 W9        30.48S WCI   3
BURLINGTON     SUNNY     12  -5  46 W7        30.47S WCI   1
KENOSHA        SUNNY     13  -4  46 W10       30.47S WCI   0
FOND DU LAC    SUNNY     15  -5  40 W9        30.43S WCI   3
SHEBOYGAN      SUNNY     14  -4  44 W9        30.44R WCI   2
WEST BEND      SUNNY     14  -6  41 W10       30.43S WCI   1
JUNEAU         SUNNY     14  -3  46 SW8       30.45R WCI   3
$$

LSZ147-162-052300-
LAKE SUPERIOR

STATION/POSITION TIME  TEMP    WIND        PRES    WAVE
                       AIR SEA DIR/SP/G            HT/PER
                 (UTC) (F)     (DEG/KT/KT) (MB)    (FT/S)
DEVILS ISLAND    2200   13     230/ 15/ 18 1028.3F
PORT WING        2100   14     260/ 10/ 14 1027.8F
SAXON HARBOR     2100   16     210/  7/ 15 1027.8F
$$

LMZ867-665-643>646-052300-
LAKE MICHIGAN

STATION/POSITION TIME  TEMP    WIND        PRES    WAVE
                       AIR SEA DIR/SP/G            HT/PER
                 (UTC) (F)     (DEG/KT/KT) (MB)    (FT/S)
NORTHPORT PIER   2118   15     210/  7/ 12 1028.8F
SISTER BAY       2013   23     250/ 11/ 13   N/A
KEWAUNEE LAKESHO 2100   13     270/  7/ 13 1029.2F
SHEBOYGAN LAKESH 2200   14     290/ 11/ 12 1032.8S
PORT WASHINGTON  2140   17     250/  7/ 12 1031.8S
MILWAUKEE LAKESH 2100   14     280/  9/ 14   N/A
KENOSHA   LAKESH 2200   14     300/  5/ 11 1032.2S
$$

TC  - TEMPERATURE IN CELSIUS
VSB - VISIBILITY IN STATUTE MILES
WCI - WIND CHILL INDEX
HX  - HEAT INDEX



USA.gov is the U.S. government's official web portal to all federal, state and local government web resources and services.